(45) Eugenia
ephemeris date magn radius delta ra dec elong phase
Today15 Sep 202411.62.818 AU1.816 AU23h53m-05°49'173.9°2.2°
Opposition17 Sep 202411.52.820 AU1.817 AU23h51m-06°07'175.1°1.7°
(45) Eugenia - 2024-09-15
astro.vanbuitenen.nl


 
-1 year
-1 month
-1 day
Now
+1 day
+1 month
+1 year

The interactive orbit chart above shows the body's path through the solar system and its position at the given date. Green and blue lines are shown perpendicular to the ecliptic plane: Green if the path is above the ecliptic plane, blue if it is below. (Left-click and drag to rotate the view; Right-click and drag to move the view; Use scroll wheel to zoom in our out.)

The orbital elements of Eugenia are:

            e (Eccentricity)                : 0.0829950
            a (Semimajor axis)              : 2.7196553
            i (Inclination)                 : 6.60581
            Ω (Longitude of ascending node) : 147.58415
            ω (Argument of perihelion)      : 87.33039
            M (Mean anomaly)                : 118.59878
            Epoch                           : 2024 Oct 17

            L (Longitude of perihelion)     : 234.89672
            B (Latitude of perihelion)      : 6.59861
            P (Orbital period in years)     : 4.49            
        

The light curve chart below shows the estimated development of the minor planet's magnitude.


The all-sky chart below shows the path of the minor planet over the same period as the light curve. The current position is marked yellow.





The following chart shows the path of the minor planet in the next few days. The field of view is optimized for (~10x50) binoculars and finderscopes. A more printer-friendly version of the same chart can be found below.




Ephemerides:
Date       Time       RA (2000)    DEC (2000)    delta   radius  elong  phase   PA    magn
2024-09-15 00:00 UT   23 53 34.1   -05 49 51     1.816    2.818  173.9    2.2   297   11.6 
2024-09-15 17:30 UT   23 53 00.2   -05 55 06     1.816    2.819  174.4    2.0   304   11.6 
2024-09-16 00:00 UT   23 52 47.5   -05 57 03     1.816    2.819  174.5    1.9   307   11.6 
2024-09-17 00:00 UT   23 52 00.8   -06 04 12     1.817    2.820  175.0    1.8   319   11.5 
2024-09-18 00:00 UT   23 51 14.0   -06 11 18     1.818    2.820  175.2    1.7   333   11.5 
2024-09-19 00:00 UT   23 50 27.1   -06 18 21     1.819    2.821  175.1    1.8   347   11.5 
2024-09-20 00:00 UT   23 49 40.3   -06 25 21     1.820    2.822  174.7    1.9     0   11.6 
2024-09-21 00:00 UT   23 48 53.5   -06 32 17     1.822    2.823  174.1    2.1    11   11.6 
2024-09-22 00:00 UT   23 48 06.8   -06 39 09     1.824    2.823  173.3    2.4    19   11.6 
2024-09-23 00:00 UT   23 47 20.2   -06 45 56     1.826    2.824  172.4    2.7    26   11.6 
2024-09-24 00:00 UT   23 46 33.9   -06 52 38     1.829    2.825  171.5    3.0    31   11.7 
2024-09-25 00:00 UT   23 45 47.8   -06 59 15     1.832    2.825  170.5    3.4    35   11.7 
2024-09-26 00:00 UT   23 45 02.1   -07 05 46     1.835    2.826  169.4    3.7    38   11.7 
2024-09-27 00:00 UT   23 44 16.7   -07 12 11     1.838    2.827  168.4    4.1    41   11.7 
2024-09-28 00:00 UT   23 43 31.7   -07 18 30     1.842    2.828  167.3    4.5    43   11.8 
2024-09-29 00:00 UT   23 42 47.2   -07 24 41     1.846    2.828  166.2    4.9    45   11.8 
2024-09-30 00:00 UT   23 42 03.3   -07 30 46     1.850    2.829  165.0    5.2    47   11.8 
2024-10-01 00:00 UT   23 41 19.9   -07 36 43     1.854    2.830  163.9    5.6    48   11.8 
2024-10-02 00:00 UT   23 40 37.2   -07 42 32     1.859    2.831  162.8    6.0    50   11.9 
2024-10-03 00:00 UT   23 39 55.1   -07 48 13     1.864    2.831  161.6    6.4    51   11.9 
2024-10-04 00:00 UT   23 39 13.8   -07 53 46     1.869    2.832  160.5    6.8    52   11.9 
2024-10-05 00:00 UT   23 38 33.2   -07 59 10     1.875    2.833  159.4    7.1    53   11.9 
2024-10-06 00:00 UT   23 37 53.5   -08 04 25     1.881    2.833  158.2    7.5    53   12.0 
2024-10-07 00:00 UT   23 37 14.6   -08 09 31     1.887    2.834  157.1    7.9    54   12.0 
2024-10-08 00:00 UT   23 36 36.6   -08 14 27     1.893    2.835  156.0    8.3    55   12.0 
2024-10-09 00:00 UT   23 35 59.6   -08 19 15     1.900    2.836  154.8    8.6    55   12.0 
2024-10-10 00:00 UT   23 35 23.5   -08 23 52     1.906    2.836  153.7    9.0    56   12.0 
2024-10-11 00:00 UT   23 34 48.5   -08 28 19     1.914    2.837  152.6    9.3    56   12.1 
2024-10-12 00:00 UT   23 34 14.5   -08 32 37     1.921    2.838  151.4    9.7    57   12.1 
2024-10-13 00:00 UT   23 33 41.5   -08 36 44     1.928    2.838  150.3   10.0    57   12.1 
2024-10-14 00:00 UT   23 33 09.7   -08 40 41     1.936    2.839  149.2   10.4    58   12.1 
2024-10-15 00:00 UT   23 32 39.1   -08 44 28     1.944    2.840  148.1   10.7    58   12.2 


    Terminology:
            
    delta:  distance between minor planet and earth in AU
    radius: distance between minor planet and sun in AU
    magn:   magnitude (brightness) estimate    
    ra:     right ascension in hours (24h = 360deg)
    dec:    declination in degrees
    elong:  elongation in degrees (angle sun-earth-minor planet)    
    phase:  phase angle in degrees (angle sun-minor planet-earth)        
    AU:     Astronomical Unit (mean distance between earth and sun: 149597870.7 km
    

Orbital elements provided by the MPC (Minor Planet Center).
Calculations by a modified version of AAPlus, a C# implementation of the AA+ project by PJ Naughter from the algorithms presented in the book "Astronomical Algorithms" by Jean Meeus.
NGC2000 dso catalog and star labels from VizieR as provided by the Strasbourg astronomical Data Center.
Tycho2 catalog from the ESO archive.